| time (UTC) | temp C | wind direction | speed KPH | gust KPH | rain 1hr cm | rain 24hr cm | rain mn cm | humidity % | barometer mb |
| 20260507164415 | 12 | 207 | 1.6 | 4.8 | 0.00 | 0.00 | 0.00 | 59 | 1014.6 |
| 20260507163416 | 12 | 0.0 | 1.6 | 0.00 | 0.00 | 0.00 | 59 | 1014.5 | |
| 20260507162415 | 12 | 140 | 3.2 | 6.4 | 0.00 | 0.00 | 0.00 | 59 | 1014.6 |
| 20260507161416 | 12 | 162 | 4.8 | 12.9 | 0.00 | 0.00 | 0.00 | 59 | 1014.7 |
| 20260507160417 | 12 | 162 | 4.8 | 9.7 | 0.00 | 0.00 | 0.00 | 59 | 1014.7 |
| 20260507155418 | 12 | 185 | 1.6 | 4.8 | 0.00 | 0.00 | 0.00 | 60 | 1014.6 |
| 20260507154418 | 12 | 0.0 | 1.6 | 0.00 | 0.00 | 0.00 | 60 | 1014.7 | |
| 20260507152418 | 12 | 0.0 | 1.6 | 0.00 | 0.00 | 0.00 | 61 | 1014.9 | |
| 20260507151418 | 12 | 72 | 3.2 | 6.4 | 0.00 | 0.00 | 0.00 | 60 | 1015.0 |
| 20260507145417 | 12 | 0.0 | 0.0 | 0.00 | 0.00 | 0.00 | 60 | 1015.0 | |
| 20260507144417 | 12 | 50 | 1.6 | 3.2 | 0.00 | 0.00 | 0.00 | 60 | 1015.2 |
| 20260507141417 | 13 | 185 | 4.8 | 11.3 | 0.00 | 0.00 | 0.00 | 60 | 1015.4 |
| 20260507140418 | 13 | 185 | 3.2 | 4.8 | 0.00 | 0.00 | 0.00 | 60 | 1015.5 |
| 20260507135418 | 13 | 140 | 3.2 | 6.4 | 0.00 | 0.00 | 0.00 | 62 | 1015.5 |
| 20260507133418 | 13 | 72 | 3.2 | 6.4 | 0.00 | 0.00 | 0.00 | 63 | 1015.6 |
| 20260507132418 | 13 | 185 | 4.8 | 9.7 | 0.00 | 0.00 | 0.00 | 64 | 1015.7 |
| 20260507131417 | 12 | 140 | 3.2 | 6.4 | 0.00 | 0.00 | 0.00 | 63 | 1015.7 |
| 20260507130418 | 12 | 185 | 4.8 | 11.3 | 0.00 | 0.00 | 0.00 | 64 | 1015.7 |
| 20260507125418 | 12 | 72 | 3.2 | 4.8 | 0.00 | 0.00 | 0.00 | 66 | 1015.7 |
| 20260507124418 | 12 | 185 | 6.4 | 11.3 | 0.00 | 0.00 | 0.00 | 67 | 1015.8 |
| 20260507123418 | 12 | 50 | 1.6 | 3.2 | 0.00 | 0.00 | 0.00 | 68 | 1015.9 |
| 20260507122417 | 12 | 140 | 3.2 | 6.4 | 0.00 | 0.00 | 0.00 | 69 | 1015.8 |
| 20260507121417 | 11 | 230 | 1.6 | 3.2 | 0.00 | 0.00 | 0.00 | 71 | 1015.9 |
| 20260507120417 | 11 | 185 | 3.2 | 4.8 | 0.00 | 0.00 | 0.00 | 72 | 1015.9 |
| 20260507115418 | 11 | 185 | 1.6 | 4.8 | 0.00 | 0.00 | 0.00 | 72 | 1016.1 |
| 20260507113418 | 10 | 117 | 4.8 | 6.4 | 0.00 | 0.00 | 0.00 | 73 | 1016.1 |
| 20260507112418 | 10 | 140 | 3.2 | 6.4 | 0.00 | 0.00 | 0.00 | 74 | 1016.1 |
| 20260507111418 | 10 | 185 | 3.2 | 6.4 | 0.00 | 0.00 | 0.00 | 74 | 1016.2 |
| 20260507110417 | 10 | 95 | 1.6 | 3.2 | 0.00 | 0.00 | 0.00 | 75 | 1016.2 |
| 20260507105418 | 10 | 185 | 1.6 | 3.2 | 0.00 | 0.00 | 0.00 | 74 | 1016.3 |
| 20260507104417 | 10 | 162 | 4.8 | 8.0 | 0.00 | 0.00 | 0.00 | 74 | 1016.3 |
| 20260507101417 | 10 | 0.0 | 3.2 | 0.00 | 0.00 | 0.00 | 78 | 1016.1 | |
| 20260507100417 | 10 | 140 | 1.6 | 3.2 | 0.00 | 0.00 | 0.00 | 77 | 1016.0 |
| 20260507095417 | 9 | 207 | 3.2 | 8.0 | 0.00 | 0.00 | 0.00 | 78 | 1016.2 |
| 20260507092417 | 8 | 162 | 4.8 | 11.3 | 0.00 | 0.00 | 0.00 | 83 | 1016.2 |
| 20260507091359 | 8 | 162 | 1.6 | 3.2 | 0.00 | 0.00 | 0.00 | 84 | 1016.3 |